Time,TemperatureF,DewpointF,PressureIn,WindDirection,WindDirectionDegrees,WindSpeedMPH,WindSpeedGustMPH,Humidity,HourlyPrecipIn,Conditions,Clouds,dailyrainin,SolarRadiationWatts/m^2,SoftwareType,DateUTC
2013-08-20 06:50:00,66.0,52.6,29.97,SSE,158,2.5,2.5,62,0.00,,---,0.00,0.00,VWS V14.01,2013-08-20 11:50:00,
2013-08-20 06:52:00,66.0,52.6,29.97,SSE,158,1.3,1.3,62,0.00,,---,0.00,0.00,VWS V14.01,2013-08-20 11:52:00,
2013-08-20 06:54:00,66.0,52.6,29.97,SSE,158,3.1,3.1,62,0.00,,---,0.00,0.00,VWS V14.01,2013-08-20 11:54:00,
2013-08-20 06:56:00,65.8,52.5,29.97,South,180,2.7,3.1,62,0.00,,---,0.00,0.00,VWS V14.01,2013-08-20 11:56:00,
2013-08-20 07:01:00,65.8,52.9,29.97,SE,135,0.0,0.0,63,0.00,,---,0.00,0.00,VWS V14.01,2013-08-20 12:01:00,
2013-08-20 07:07:00,66.0,53.1,29.97,SSE,158,0.0,0.0,63,0.00,,---,0.00,0.00,VWS V14.01,2013-08-20 12:07:00,
2013-08-20 07:13:00,66.4,53.8,29.97,SSW,202,0.0,0.0,64,0.00,,---,0.00,0.00,VWS V14.01,2013-08-20 12:13:00,
2013-08-20 07:18:00,66.6,54.0,29.97,South,180,0.0,0.0,64,0.00,,---,0.00,0.00,VWS V14.01,2013-08-20 12:18:00,
2013-08-20 07:23:00,66.7,54.6,29.97,South,180,0.0,0.0,65,0.00,,---,0.00,0.00,VWS V14.01,2013-08-20 12:23:00,
2013-08-20 07:29:00,67.1,55.0,29.97,SSE,158,0.0,0.0,65,0.00,,---,0.00,0.00,VWS V14.01,2013-08-20 12:29:00,
2013-08-20 07:35:00,67.8,55.6,29.97,SSE,158,5.4,5.4,65,0.00,,---,0.00,0.00,VWS V14.01,2013-08-20 12:35:00,
2013-08-20 07:41:00,68.0,55.4,29.97,South,180,2.5,4.0,64,0.00,,---,0.00,0.00,VWS V14.01,2013-08-20 12:41:00,
2013-08-20 07:47:00,68.0,55.4,29.97,South,180,2.5,4.3,64,0.00,,---,0.00,0.00,VWS V14.01,2013-08-20 12:47:00,
2013-08-20 07:52:00,68.7,56.1,29.97,SSW,202,3.6,3.6,64,0.00,,---,0.00,0.00,VWS V14.01,2013-08-20 12:52:00,
2013-08-20 07:57:00,69.4,56.3,29.97,South,180,2.7,3.1,63,0.00,,---,0.00,0.00,VWS V14.01,2013-08-20 12:57:00,
2013-08-20 08:02:00,69.8,56.7,29.97,SSW,202,1.6,4.3,63,0.00,,---,0.00,0.00,VWS V14.01,2013-08-20 13:02:00,
2013-08-20 08:08:00,70.5,56.9,29.97,SSW,202,2.7,2.7,62,0.00,,---,0.00,0.00,VWS V14.01,2013-08-20 13:08:00,
2013-08-20 08:13:00,71.4,57.3,29.97,South,180,5.4,5.4,61,0.00,,---,0.00,0.00,VWS V14.01,2013-08-20 13:13:00,
2013-08-20 08:19:00,71.8,57.2,29.97,South,180,4.0,4.0,60,0.00,,---,0.00,0.00,VWS V14.01,2013-08-20 13:19:00,
2013-08-20 08:24:00,72.5,56.9,29.97,SSW,202,4.7,4.7,58,0.00,,---,0.00,0.00,VWS V14.01,2013-08-20 13:24:00,
2013-08-20 08:30:00,73.4,55.2,29.97,SSW,202,7.2,7.2,53,0.00,,---,0.00,0.00,VWS V14.01,2013-08-20 13:30:00,
2013-08-20 08:35:00,73.8,54.5,29.97,South,180,5.6,5.6,51,0.00,,---,0.00,0.00,VWS V14.01,2013-08-20 13:35:00,
2013-08-20 08:40:00,74.1,54.3,29.97,SSW,202,8.7,8.7,50,0.00,,---,0.00,0.00,VWS V14.01,2013-08-20 13:40:00,
2013-08-20 08:46:00,74.7,53.1,29.97,SSW,202,3.8,3.8,47,0.00,,---,0.00,0.00,VWS V14.01,2013-08-20 13:46:00,
2013-08-20 08:51:00,75.2,53.0,29.97,SSW,202,6.0,6.0,46,0.00,,---,0.00,0.00,VWS V14.01,2013-08-20 13:51:00,
2013-08-20 08:56:00,75.7,52.9,29.97,SSW,202,5.8,6.3,45,0.00,,---,0.00,0.00,VWS V14.01,2013-08-20 13:56:00,
2013-08-20 09:01:00,75.9,52.5,29.97,South,180,3.8,4.9,44,0.00,,---,0.00,0.00,VWS V14.01,2013-08-20 14:01:00,
2013-08-20 09:06:00,75.9,52.5,29.97,South,180,5.6,5.6,44,0.00,,---,0.00,0.00,VWS V14.01,2013-08-20 14:06:00,
2013-08-20 09:12:00,77.0,52.2,30.00,SW,225,5.6,5.6,42,0.00,,---,0.00,0.00,VWS V14.01,2013-08-20 14:12:00,
2013-08-20 09:18:00,77.2,51.7,30.00,WSW,248,4.9,5.6,41,0.00,,---,0.00,0.00,VWS V14.01,2013-08-20 14:18:00,
2013-08-20 09:24:00,77.5,51.3,30.00,SSW,202,5.6,5.6,40,0.00,,---,0.00,0.00,VWS V14.01,2013-08-20 14:24:00,
2013-08-20 09:30:00,77.4,49.8,30.00,SW,225,4.3,4.3,38,0.00,,---,0.00,0.00,VWS V14.01,2013-08-20 14:30:00,
2013-08-20 09:36:00,77.9,49.6,30.00,SSW,202,8.7,10.3,37,0.00,,---,0.00,0.00,VWS V14.01,2013-08-20 14:36:00,
2013-08-20 09:41:00,77.9,49.6,30.00,SW,225,7.8,7.8,37,0.00,,---,0.00,0.00,VWS V14.01,2013-08-20 14:41:00,
2013-08-20 09:46:00,77.9,49.6,30.00,SSW,202,3.6,6.0,37,0.00,,---,0.00,0.00,VWS V14.01,2013-08-20 14:46:00,
2013-08-20 09:52:00,78.3,49.1,30.00,SSE,158,9.8,9.8,36,0.00,,---,0.00,0.00,VWS V14.01,2013-08-20 14:52:00,
2013-08-20 09:57:00,78.3,49.1,30.00,SSW,202,6.5,6.5,36,0.00,,---,0.00,0.00,VWS V14.01,2013-08-20 14:57:00,
2013-08-20 10:03:00,79.2,49.9,30.00,SW,225,7.4,8.5,36,0.00,,---,0.00,0.00,VWS V14.01,2013-08-20 15:03:00,
2013-08-20 10:08:00,79.7,48.9,30.00,SW,225,6.3,7.4,34,0.00,,---,0.00,0.00,VWS V14.01,2013-08-20 15:08:00,
2013-08-20 10:14:00,79.7,48.1,30.00,SSW,202,3.1,4.3,33,0.00,,---,0.00,0.00,VWS V14.01,2013-08-20 15:14:00,
2013-08-20 10:20:00,80.2,48.5,30.00,SSW,202,6.7,6.7,33,0.00,,---,0.00,0.00,VWS V14.01,2013-08-20 15:20:00,
2013-08-20 10:26:00,80.2,48.5,30.00,WSW,248,8.5,8.5,33,0.00,,---,0.00,0.00,VWS V14.01,2013-08-20 15:26:00,
2013-08-20 10:31:00,80.2,48.5,30.00,South,180,6.0,8.1,33,0.00,,---,0.00,0.00,VWS V14.01,2013-08-20 15:31:00,
2013-08-20 10:36:00,81.9,47.4,30.00,WSW,248,8.1,8.1,30,0.00,,---,0.00,0.00,VWS V14.01,2013-08-20 15:36:00,
2013-08-20 10:42:00,82.0,47.6,30.00,SW,225,4.3,4.3,30,0.00,,---,0.00,0.00,VWS V14.01,2013-08-20 15:42:00,
2013-08-20 10:47:00,82.2,47.7,30.00,SSW,202,3.1,10.1,30,0.00,,---,0.00,0.00,VWS V14.01,2013-08-20 15:47:00,
2013-08-20 10:52:00,82.6,47.1,30.00,SW,225,6.0,6.0,29,0.00,,---,0.00,0.00,VWS V14.01,2013-08-20 15:52:00,
2013-08-20 10:57:00,82.8,47.3,30.00,SSW,202,6.3,8.5,29,0.00,,---,0.00,0.00,VWS V14.01,2013-08-20 15:57:00,
2013-08-20 11:03:00,83.7,48.1,30.00,SSW,202,4.5,4.5,29,0.00,,---,0.00,0.00,VWS V14.01,2013-08-20 16:03:00,
2013-08-20 11:09:00,83.7,48.1,30.00,South,180,5.8,5.8,29,0.00,,---,0.00,0.00,VWS V14.01,2013-08-20 16:09:00,
2013-08-20 11:15:00,84.6,45.9,30.00,SW,225,9.0,9.0,26,0.00,,---,0.00,0.00,VWS V14.01,2013-08-20 16:15:00,
2013-08-20 11:20:00,85.1,45.4,30.00,SW,225,10.1,10.1,25,0.00,,---,0.00,0.00,VWS V14.01,2013-08-20 16:20:00,
2013-08-20 11:26:00,85.3,45.5,30.00,WNW,292,6.3,6.3,25,0.00,,---,0.00,0.00,VWS V14.01,2013-08-20 16:26:00,
2013-08-20 11:32:00,85.6,43.6,30.00,South,180,11.0,11.0,23,0.00,,---,0.00,0.00,VWS V14.01,2013-08-20 16:32:00,
2013-08-20 11:37:00,85.6,43.6,30.00,South,180,3.4,7.4,23,0.00,,---,0.00,0.00,VWS V14.01,2013-08-20 16:37:00,
2013-08-20 11:43:00,85.8,43.8,30.00,SW,225,5.4,7.8,23,0.00,,---,0.00,0.00,VWS V14.01,2013-08-20 16:43:00,
2013-08-20 11:48:00,86.0,42.8,30.00,SSW,202,3.4,8.1,22,0.00,,---,0.00,0.00,VWS V14.01,2013-08-20 16:48:00,
2013-08-20 11:53:00,85.3,41.0,30.00,SSW,202,5.8,5.8,21,0.00,,---,0.00,0.00,VWS V14.01,2013-08-20 16:53:00,
2013-08-20 11:59:00,84.9,40.7,30.00,SSE,158,8.5,8.5,21,0.00,,---,0.00,0.00,VWS V14.01,2013-08-20 16:59:00,
2013-08-20 12:05:00,84.6,40.4,30.00,SSW,202,8.1,8.1,21,0.00,,---,0.00,0.00,VWS V14.01,2013-08-20 17:05:00,
2013-08-20 12:10:00,84.6,41.6,30.00,SW,225,6.5,6.5,22,0.00,,---,0.00,0.00,VWS V14.01,2013-08-20 17:10:00,
2013-08-20 12:15:00,84.7,41.7,30.00,WSW,248,8.5,8.5,22,0.00,,---,0.00,0.00,VWS V14.01,2013-08-20 17:15:00,
2013-08-20 12:20:00,84.9,40.7,30.00,SW,225,7.4,7.4,21,0.00,,---,0.00,0.00,VWS V14.01,2013-08-20 17:20:00,
2013-08-20 12:25:00,84.9,40.7,30.00,SSW,202,6.3,7.4,21,0.00,,---,0.00,0.00,VWS V14.01,2013-08-20 17:25:00,
2013-08-20 12:31:00,85.1,39.6,30.00,WSW,248,9.8,9.8,20,0.00,,---,0.00,0.00,VWS V14.01,2013-08-20 17:31:00,
2013-08-20 12:36:00,85.1,39.6,29.97,WSW,248,7.4,7.4,20,0.00,,---,0.00,0.00,VWS V14.01,2013-08-20 17:36:00,
2013-08-20 12:41:00,86.9,41.0,29.97,SW,225,10.3,10.3,20,0.00,,---,0.00,0.00,VWS V14.01,2013-08-20 17:41:00,
2013-08-20 12:48:00,86.9,39.7,29.97,SSW,202,5.8,6.5,19,0.00,,---,0.00,0.00,VWS V14.01,2013-08-20 17:48:00,
2013-08-20 12:54:00,87.1,39.9,29.97,SSW,202,7.8,7.8,19,0.00,,---,0.00,0.00,VWS V14.01,2013-08-20 17:54:00,
2013-08-20 13:00:00,87.1,39.9,29.97,SSW,202,7.8,7.8,19,0.00,,---,0.00,0.00,VWS V14.01,2013-08-20 18:00:00,
2013-08-20 13:05:00,88.2,39.4,29.97,WSW,248,6.5,6.5,18,0.00,,---,0.00,0.00,VWS V14.01,2013-08-20 18:05:00,
2013-08-20 13:10:00,87.6,38.9,29.97,SSW,202,6.3,6.3,18,0.00,,---,0.00,0.00,VWS V14.01,2013-08-20 18:10:00,
2013-08-20 13:16:00,88.5,39.7,29.97,SSE,158,4.0,6.3,18,0.00,,---,0.00,0.00,VWS V14.01,2013-08-20 18:16:00,
2013-08-20 13:22:00,89.4,40.4,29.97,South,180,6.0,7.8,18,0.00,,---,0.00,0.00,VWS V14.01,2013-08-20 18:22:00,
2013-08-20 13:27:00,89.4,40.4,29.97,SW,225,8.7,8.7,18,0.00,,---,0.00,0.00,VWS V14.01,2013-08-20 18:27:00,
2013-08-20 13:33:00,88.3,39.5,29.97,SSE,158,4.0,10.5,18,0.00,,---,0.00,0.00,VWS V14.01,2013-08-20 18:33:00,
2013-08-20 13:38:00,88.9,39.9,29.97,SW,225,6.0,6.0,18,0.00,,---,0.00,0.00,VWS V14.01,2013-08-20 18:38:00,
2013-08-20 13:44:00,88.7,39.8,29.94,SW,225,6.0,6.0,18,0.00,,---,0.00,0.00,VWS V14.01,2013-08-20 18:44:00,
2013-08-20 13:49:00,88.7,39.8,29.94,SSE,158,10.3,10.3,18,0.00,,---,0.00,0.00,VWS V14.01,2013-08-20 18:49:00,
2013-08-20 13:56:00,89.6,39.1,29.94,SSE,158,10.3,10.3,17,0.00,,---,0.00,0.00,VWS V14.01,2013-08-20 18:56:00,
2013-08-20 14:01:00,90.0,39.3,29.97,West,270,8.5,8.5,17,0.00,,---,0.00,0.00,VWS V14.01,2013-08-20 19:01:00,
2013-08-20 14:07:00,89.1,35.5,29.97,SSW,202,6.3,7.8,15,0.00,,---,0.00,0.00,VWS V14.01,2013-08-20 19:07:00,
2013-08-20 14:12:00,89.1,40.1,29.97,SSE,158,7.2,9.6,18,0.00,,---,0.00,0.00,VWS V14.01,2013-08-20 19:12:00,
2013-08-20 14:17:00,90.1,39.5,29.97,South,180,6.3,9.6,17,0.00,,---,0.00,0.00,VWS V14.01,2013-08-20 19:17:00,
2013-08-20 14:22:00,90.5,36.6,29.97,SSW,202,4.7,4.7,15,0.00,,---,0.00,0.00,VWS V14.01,2013-08-20 19:22:00,
2013-08-20 14:27:00,90.7,36.7,29.97,SSW,202,7.8,7.8,15,0.00,,---,0.00,0.00,VWS V14.01,2013-08-20 19:27:00,
2013-08-20 14:34:00,90.7,36.7,29.97,SSW,202,7.8,7.8,15,0.00,,---,0.00,0.00,VWS V14.01,2013-08-20 19:34:00,
2013-08-20 14:40:00,91.0,37.0,29.97,SE,135,12.8,12.8,15,0.00,,---,0.00,0.00,VWS V14.01,2013-08-20 19:40:00,
2013-08-20 14:46:00,91.2,37.2,29.97,South,180,5.4,8.7,15,0.00,,---,0.00,0.00,VWS V14.01,2013-08-20 19:46:00,
2013-08-20 14:51:00,91.2,37.2,29.97,SSW,202,5.8,5.8,15,0.00,,---,0.00,0.00,VWS V14.01,2013-08-20 19:51:00,
2013-08-20 14:56:00,90.9,36.9,29.97,SSE,158,6.0,6.0,15,0.00,,---,0.00,0.00,VWS V14.01,2013-08-20 19:56:00,
2013-08-20 15:03:00,91.4,35.6,29.97,WSW,248,4.3,4.9,14,0.00,,---,0.00,0.00,VWS V14.01,2013-08-20 20:03:00,
2013-08-20 15:09:00,91.4,35.6,29.97,SW,225,6.3,6.3,14,0.00,,---,0.00,0.00,VWS V14.01,2013-08-20 20:09:00,
2013-08-20 15:15:00,91.4,35.6,29.97,South,180,7.6,7.6,14,0.00,,---,0.00,0.00,VWS V14.01,2013-08-20 20:15:00,
2013-08-20 15:20:00,91.0,37.0,29.97,South,180,13.9,13.9,15,0.00,,---,0.00,0.00,VWS V14.01,2013-08-20 20:20:00,
2013-08-20 15:25:00,90.9,36.9,29.97,SSE,158,5.8,5.8,15,0.00,,---,0.00,0.00,VWS V14.01,2013-08-20 20:25:00,
2013-08-20 15:30:00,91.2,37.2,29.97,WSW,248,4.0,5.4,15,0.00,,---,0.00,0.00,VWS V14.01,2013-08-20 20:30:00,
2013-08-20 15:36:00,91.0,37.0,29.94,SSW,202,8.5,8.5,15,0.00,,---,0.00,0.00,VWS V14.01,2013-08-20 20:36:00,
2013-08-20 15:42:00,91.2,37.2,29.94,SSE,158,8.7,8.7,15,0.00,,---,0.00,0.00,VWS V14.01,2013-08-20 20:42:00,
2013-08-20 15:47:00,91.4,35.6,29.94,SSE,158,9.2,9.2,14,0.00,,---,0.00,0.00,VWS V14.01,2013-08-20 20:47:00,
2013-08-20 15:52:00,90.7,36.7,29.94,SSW,202,7.6,7.6,15,0.00,,---,0.00,0.00,VWS V14.01,2013-08-20 20:52:00,
2013-08-20 15:58:00,91.0,37.0,29.94,WSW,248,6.0,6.3,15,0.00,,---,0.00,0.00,VWS V14.01,2013-08-20 20:58:00,
2013-08-20 16:04:00,91.0,37.0,29.94,SW,225,6.0,6.0,15,0.00,,---,0.00,0.00,VWS V14.01,2013-08-20 21:04:00,
2013-08-20 16:09:00,91.0,37.0,29.97,South,180,7.8,7.8,15,0.00,,---,0.00,0.00,VWS V14.01,2013-08-20 21:09:00,
2013-08-20 16:15:00,91.0,37.0,29.97,SSE,158,7.6,7.6,15,0.00,,---,0.00,0.00,VWS V14.01,2013-08-20 21:15:00,
2013-08-20 16:21:00,91.2,37.2,29.94,WSW,248,7.2,8.1,15,0.00,,---,0.00,0.00,VWS V14.01,2013-08-20 21:21:00,
2013-08-20 16:26:00,91.2,37.2,29.94,SSW,202,4.0,7.2,15,0.00,,---,0.00,0.00,VWS V14.01,2013-08-20 21:26:00,
2013-08-20 16:31:00,91.2,37.2,29.94,SW,225,5.4,5.4,15,0.00,,---,8.35,0.00,VWS V14.01,2013-08-20 21:31:00,
2013-08-20 16:38:00,91.2,37.2,29.94,South,180,6.3,11.4,15,0.00,,---,8.35,0.00,VWS V14.01,2013-08-20 21:38:00,
2013-08-20 16:44:00,91.0,37.0,29.91,South,180,12.3,12.3,15,0.00,,---,8.35,0.00,VWS V14.01,2013-08-20 21:44:00,
2013-08-20 16:50:00,90.7,36.7,29.91,SSW,202,8.7,8.7,15,0.00,,---,8.35,0.00,VWS V14.01,2013-08-20 21:50:00,
2013-08-20 16:56:00,90.7,36.7,29.91,South,180,8.5,8.5,15,0.00,,---,8.35,0.00,VWS V14.01,2013-08-20 21:56:00,
2013-08-20 17:02:00,90.5,36.6,29.91,SSW,202,5.4,7.4,15,0.00,,---,8.35,0.00,VWS V14.01,2013-08-20 22:02:00,
2013-08-20 17:08:00,90.5,36.6,29.91,SSW,202,6.7,6.9,15,0.00,,---,8.35,0.00,VWS V14.01,2013-08-20 22:08:00,
2013-08-20 17:14:00,90.1,36.3,29.91,SW,225,7.8,7.8,15,0.00,,---,8.35,0.00,VWS V14.01,2013-08-20 22:14:00,
2013-08-20 17:19:00,90.3,36.5,29.91,SW,225,5.4,5.4,15,0.00,,---,8.35,0.00,VWS V14.01,2013-08-20 22:19:00,
2013-08-20 17:24:00,90.3,36.5,29.94,SSW,202,7.8,7.8,15,0.00,,---,8.35,0.00,VWS V14.01,2013-08-20 22:24:00,
2013-08-20 17:30:00,90.3,36.5,29.94,SSW,202,6.5,6.5,15,0.00,,---,8.35,0.00,VWS V14.01,2013-08-20 22:30:00,
2013-08-20 17:35:00,90.0,36.2,29.94,SSE,158,6.3,6.3,15,0.00,,---,8.35,0.00,VWS V14.01,2013-08-20 22:35:00,
2013-08-20 17:41:00,90.0,36.2,29.91,SSW,202,5.4,6.3,15,0.00,,---,8.35,0.00,VWS V14.01,2013-08-20 22:41:00,
2013-08-20 17:47:00,89.4,35.7,29.91,South,180,5.8,5.8,15,0.00,,---,8.35,0.00,VWS V14.01,2013-08-20 22:47:00,
2013-08-20 17:53:00,89.4,35.7,29.91,SSW,202,5.6,5.6,15,0.00,,---,8.35,0.00,VWS V14.01,2013-08-20 22:53:00,
2013-08-20 17:59:00,89.4,35.7,29.91,SSW,202,6.7,6.7,15,0.00,,---,8.35,0.00,VWS V14.01,2013-08-20 22:59:00,
2013-08-20 18:04:00,89.2,35.6,29.91,SW,225,3.4,5.4,15,0.00,,---,8.35,0.00,VWS V14.01,2013-08-20 23:04:00,